Regional Weather Roundup
Issued by NWS

Home | Current Version | Previous Version | Text Only | Print | Product List | Glossary On
Versions: 1 2 3 4 5 6 7 8 9 10 11 12 13 14 15 16 17 18 19 20 21 22 23 24 25 26 27 28 29 30 31 32 33 34 35 36 37 38 39 40 41 42 43 44 45 46 47 48 49 50
000
ASUS44 KOUN 231110
RWROK

WEATHER ROUNDUP FOR OKLAHOMA
NATIONAL WEATHER SERVICE NORMAN OK
600 AM CDT TUE MAY 23 2017

NOTE: "FAIR" INDICATES FEW OR NO CLOUDS BELOW 12,000 FEET WITH NO
      SIGNIFICANT WEATHER AND/OR OBSTRUCTIONS TO VISIBILITY.

OKZ001>007-009>012-014-015-017-231200-
NORTHWEST OKLAHOMA AND THE PANHANDLE

CITY           SKY/WX    TMP DP  RH WIND       PRES   REMARKS
GAGE           CLOUDY    54  49  83 NW12      30.05S
GUYMON         CLOUDY    49  47  93 NW7       30.11F
ENID/WOODRING  CLOUDY    55  54  94 NW12      29.91R
$$

OKZ016-021>023-033>039-044-045-231200-
SOUTHWEST OKLAHOMA

CITY           SKY/WX    TMP DP  RH WIND       PRES   REMARKS
LAWTON/REGL    CLOUDY    61  58  90 CALM      29.94R
LAWTON/FT SILL CLOUDY    60  58  91 NW6       29.92S
FREDERICK      PTCLDY    60  56  86 VRB7      29.91F
CLINTON        CLOUDY    55  49  80 NW21G28   30.00R
HOBART         PTCLDY    57  54  89 NW14      29.99R
ALTUS AFB      MOCLDY    58  53  84 NW15      29.97R
$$

OKZ018>020-024>031-231200-
CENTRAL OKLAHOMA

CITY           SKY/WX    TMP DP  RH WIND       PRES   REMARKS
OKLAHOMA CITY  MOCLDY    57  54  89 NW9       29.91F
OKC/WILEY POST CLEAR     57  55  93 W12       29.91F
OKC/TINKER AFB CLEAR     58  55  90 NW5       29.89F
STILLWATER     PTCLDY    53  51  93 CALM      29.89S FOG
GUTHRIE        CLEAR     55  54  96 W8        29.91F
$$

OKZ008-013-054>072-231200-
NORTHEAST OKLAHOMA

CITY           SKY/WX    TMP DP  RH WIND       PRES   REMARKS
TULSA          PTCLDY    59  58  96 NW7       29.87F
TULSA/JONES    CLEAR     59  56  89 CALM      29.87F
PONCA CITY     CLOUDY    55  53  93 CALM      29.90R
BARTLESVILLE   PTCLDY    56  54  93 CALM      29.90S
MUSKOGEE       CLOUDY    60  58  92 NW15G24   29.89S
$$

OKZ032-040>043-046>053-073>077-231200-
SOUTH CENTRAL/SOUTHEAST OKLAHOMA

CITY           SKY/WX    TMP DP  RH WIND       PRES   REMARKS
ARDMORE/DWNTWN CLOUDY    63  61  94 CALM      29.89R
MCALESTER      CLOUDY    63  61  93 NW5       29.90S
$$





USA.gov is the U.S. government's official web portal to all federal, state and local government web resources and services.